Time,TemperatureF,DewpointF,PressureIn,WindDirection,WindDirectionDegrees,WindSpeedMPH,WindSpeedGustMPH,Humidity,HourlyPrecipIn,Conditions,Clouds,dailyrainin,SoftwareType,DateUTC
2013-01-03 00:02:00,19.0,17.0,30.14,SSW,211,10.0,18.0,90,0.00,,,0.00,,2013-01-03 06:02:00,
2013-01-03 00:12:00,19.0,17.0,30.14,SSW,211,10.0,18.0,90,0.00,,,0.00,,2013-01-03 06:12:00,
2013-01-03 00:22:00,19.0,17.0,30.14,SSW,211,10.0,18.0,90,0.00,,,0.00,,2013-01-03 06:22:00,
2013-01-03 00:32:00,20.0,18.0,30.13,SSW,207,9.0,17.0,90,0.00,,,0.00,,2013-01-03 06:32:00,
2013-01-03 00:42:00,20.0,18.0,30.13,SSW,207,9.0,17.0,90,0.00,,,0.00,,2013-01-03 06:42:00,
2013-01-03 00:53:00,20.0,18.0,30.13,SW,217,10.0,18.0,90,0.00,,,0.00,,2013-01-03 06:53:00,
2013-01-03 01:02:00,20.0,18.0,30.13,SW,220,10.0,16.0,90,0.00,,,0.00,,2013-01-03 07:02:00,
2013-01-03 01:12:00,20.0,18.0,30.13,SW,220,10.0,16.0,90,0.00,,,0.00,,2013-01-03 07:12:00,
2013-01-03 01:22:00,20.0,18.0,30.13,SW,227,11.0,17.0,90,0.00,,,0.00,,2013-01-03 07:22:00,
2013-01-03 01:32:00,20.0,18.0,30.13,SSW,204,10.0,15.0,91,0.00,,,0.00,,2013-01-03 07:32:00,
2013-01-03 01:42:00,20.0,18.0,30.13,SSW,204,10.0,15.0,91,0.00,,,0.00,,2013-01-03 07:42:00,
2013-01-03 01:52:00,20.0,18.0,30.13,SSW,204,10.0,15.0,91,0.00,,,0.00,,2013-01-03 07:52:00,
2013-01-03 02:02:00,22.0,20.0,30.14,SW,221,8.0,16.0,90,0.00,,,0.00,,2013-01-03 08:02:00,
2013-01-03 02:12:00,22.0,20.0,30.14,SW,221,8.0,16.0,90,0.00,,,0.00,,2013-01-03 08:12:00,
2013-01-03 02:22:00,22.0,20.0,30.14,SW,225,9.0,16.0,90,0.00,,,0.00,,2013-01-03 08:22:00,
2013-01-03 02:32:00,22.0,20.0,30.14,SW,225,9.0,16.0,90,0.00,,,0.00,,2013-01-03 08:32:00,
2013-01-03 02:42:00,22.0,20.0,30.14,SW,225,9.0,16.0,90,0.00,,,0.00,,2013-01-03 08:42:00,
2013-01-03 02:52:00,23.0,21.0,30.15,SW,218,9.0,14.0,90,0.00,,,0.00,,2013-01-03 08:52:00,
2013-01-03 03:02:00,23.0,20.0,30.15,SW,217,10.0,15.0,89,0.00,,,0.00,,2013-01-03 09:02:00,
2013-01-03 03:12:00,23.0,20.0,30.15,SW,217,10.0,15.0,89,0.00,,,0.00,,2013-01-03 09:12:00,
2013-01-03 03:22:00,24.0,22.0,30.15,SW,230,9.0,13.0,90,0.00,,,0.00,,2013-01-03 09:22:00,
2013-01-03 03:33:00,24.0,22.0,30.15,WSW,238,8.0,13.0,90,0.00,,,0.00,,2013-01-03 09:33:00,
2013-01-03 03:43:00,24.0,22.0,30.15,WSW,238,8.0,13.0,90,0.00,,,0.00,,2013-01-03 09:43:00,
2013-01-03 03:52:00,24.0,22.0,30.16,SW,220,9.0,13.0,91,0.00,,,0.00,,2013-01-03 09:52:00,
2013-01-03 04:02:00,25.0,23.0,30.15,SSW,208,7.0,16.0,92,0.00,,,0.00,,2013-01-03 10:02:00,
2013-01-03 04:12:00,25.0,23.0,30.15,SSW,208,7.0,16.0,92,0.00,,,0.00,,2013-01-03 10:12:00,
2013-01-03 04:22:00,25.0,23.0,30.15,SW,216,9.0,14.0,92,0.00,,,0.00,,2013-01-03 10:22:00,
2013-01-03 04:33:00,25.0,23.0,30.15,SW,228,9.0,13.0,92,0.00,,,0.00,,2013-01-03 10:33:00,
2013-01-03 04:42:00,25.0,23.0,30.15,SW,228,9.0,13.0,92,0.00,,,0.00,,2013-01-03 10:42:00,
2013-01-03 04:52:00,25.0,23.0,30.15,SW,228,9.0,13.0,92,0.00,,,0.00,,2013-01-03 10:52:00,
2013-01-03 05:02:00,25.0,23.0,30.15,SW,228,9.0,13.0,92,0.00,,,0.00,,2013-01-03 11:02:00,
2013-01-03 05:22:00,24.0,23.0,30.16,SW,219,7.0,12.0,94,0.00,,,0.00,,2013-01-03 11:22:00,
2013-01-03 05:33:00,25.0,24.0,30.16,SW,222,7.0,14.0,95,0.00,,,0.00,,2013-01-03 11:33:00,
2013-01-03 05:43:00,25.0,24.0,30.16,SW,222,7.0,14.0,95,0.00,,,0.00,,2013-01-03 11:43:00,
2013-01-03 05:53:00,25.0,24.0,30.16,SW,230,7.0,16.0,94,0.00,,,0.00,,2013-01-03 11:53:00,
2013-01-03 06:03:00,25.0,24.0,30.17,SW,235,9.0,14.0,95,0.00,,,0.00,,2013-01-03 12:03:00,
2013-01-03 06:12:00,25.0,24.0,30.17,SW,235,9.0,14.0,95,0.00,,,0.00,,2013-01-03 12:12:00,
2013-01-03 06:22:00,25.0,24.0,30.17,SW,226,10.0,16.0,95,0.00,,,0.00,,2013-01-03 12:22:00,
2013-01-03 06:32:00,26.0,25.0,30.17,WSW,242,9.0,16.0,96,0.00,,,0.00,,2013-01-03 12:32:00,
2013-01-03 06:42:00,26.0,25.0,30.17,WSW,242,9.0,16.0,96,0.00,,,0.00,,2013-01-03 12:42:00,
2013-01-03 06:52:00,26.0,25.0,30.18,SW,234,10.0,16.0,96,0.00,,,0.00,,2013-01-03 12:52:00,
2013-01-03 07:02:00,26.0,25.0,30.17,SW,236,9.0,16.0,96,0.00,,,0.00,,2013-01-03 13:02:00,
2013-01-03 07:12:00,26.0,25.0,30.17,SW,236,9.0,16.0,96,0.00,,,0.00,,2013-01-03 13:12:00,
2013-01-03 07:22:00,26.0,25.0,30.17,SW,233,9.0,17.0,96,0.00,,,0.00,,2013-01-03 13:22:00,
2013-01-03 07:33:00,26.0,25.0,30.17,WSW,247,9.0,15.0,96,0.00,,,0.00,,2013-01-03 13:33:00,
2013-01-03 07:42:00,26.0,25.0,30.17,WSW,247,9.0,15.0,96,0.00,,,0.00,,2013-01-03 13:42:00,
2013-01-03 07:52:00,26.0,25.0,30.17,WSW,242,8.0,17.0,96,0.00,,,0.00,,2013-01-03 13:52:00,
2013-01-03 08:03:00,26.0,25.0,30.17,WSW,241,8.0,15.0,96,0.00,,,0.00,,2013-01-03 14:03:00,
2013-01-03 08:12:00,26.0,25.0,30.17,WSW,241,8.0,15.0,96,0.00,,,0.00,,2013-01-03 14:12:00,
2013-01-03 08:22:00,26.0,25.0,30.18,WSW,244,12.0,20.0,97,0.00,,,0.00,,2013-01-03 14:22:00,
2013-01-03 08:33:00,27.0,26.0,30.19,WSW,244,10.0,16.0,97,0.00,,,0.00,,2013-01-03 14:33:00,
2013-01-03 08:42:00,27.0,26.0,30.19,WSW,244,10.0,16.0,97,0.00,,,0.00,,2013-01-03 14:42:00,
2013-01-03 08:53:00,27.0,26.0,30.19,WSW,243,10.0,17.0,96,0.00,,,0.00,,2013-01-03 14:53:00,
2013-01-03 09:03:00,27.0,26.0,30.19,WSW,243,10.0,17.0,96,0.00,,,0.00,,2013-01-03 15:03:00,
2013-01-03 09:12:00,27.0,26.0,30.19,WSW,243,10.0,17.0,96,0.00,,,0.00,,2013-01-03 15:12:00,
2013-01-03 09:22:00,28.0,27.0,30.21,SW,235,8.0,18.0,96,0.00,,,0.00,,2013-01-03 15:22:00,
2013-01-03 09:33:00,28.0,27.0,30.21,SW,235,8.0,18.0,96,0.00,,,0.00,,2013-01-03 15:33:00,
2013-01-03 09:43:00,28.0,27.0,30.21,SW,235,8.0,18.0,96,0.00,,,0.00,,2013-01-03 15:43:00,
2013-01-03 09:53:00,29.0,28.0,30.22,WSW,243,9.0,16.0,95,0.00,,,0.00,,2013-01-03 15:53:00,
2013-01-03 10:03:00,30.0,28.0,30.22,WSW,253,13.0,22.0,94,0.00,,,0.00,,2013-01-03 16:03:00,
2013-01-03 10:12:00,30.0,28.0,30.22,WSW,253,13.0,22.0,94,0.00,,,0.00,,2013-01-03 16:12:00,
2013-01-03 10:22:00,30.0,28.0,30.23,WSW,250,11.0,20.0,92,0.00,,,0.00,,2013-01-03 16:22:00,
2013-01-03 10:33:00,31.0,28.0,30.24,West,265,14.0,23.0,89,0.00,,,0.00,,2013-01-03 16:33:00,
2013-01-03 10:43:00,31.0,28.0,30.24,West,265,14.0,23.0,89,0.00,,,0.00,,2013-01-03 16:43:00,
2013-01-03 10:52:00,31.0,28.0,30.24,West,261,13.0,21.0,88,0.00,,,0.00,,2013-01-03 16:52:00,
2013-01-03 11:03:00,31.0,28.0,30.24,West,260,15.0,21.0,87,0.00,,,0.00,,2013-01-03 17:03:00,
2013-01-03 11:12:00,31.0,28.0,30.24,West,260,15.0,21.0,87,0.00,,,0.00,,2013-01-03 17:12:00,
2013-01-03 11:23:00,31.0,28.0,30.24,West,260,15.0,21.0,87,0.00,,,0.00,,2013-01-03 17:23:00,
2013-01-03 11:33:00,31.0,28.0,30.24,West,260,12.0,21.0,87,0.00,,,0.00,,2013-01-03 17:33:00,
2013-01-03 11:43:00,31.0,28.0,30.24,West,260,12.0,21.0,87,0.00,,,0.00,,2013-01-03 17:43:00,
2013-01-03 11:53:00,31.0,28.0,30.24,West,260,12.0,18.0,87,0.00,,,0.00,,2013-01-03 17:53:00,
2013-01-03 12:03:00,31.0,28.0,30.23,WSW,247,10.0,22.0,88,0.00,,,0.00,,2013-01-03 18:03:00,
2013-01-03 12:13:00,31.0,28.0,30.23,WSW,247,10.0,22.0,88,0.00,,,0.00,,2013-01-03 18:13:00,
2013-01-03 12:22:00,31.0,28.0,30.23,West,263,15.0,24.0,87,0.00,,,0.00,,2013-01-03 18:22:00,
2013-01-03 12:33:00,31.0,28.0,30.23,West,263,15.0,24.0,87,0.00,,,0.00,,2013-01-03 18:33:00,
2013-01-03 12:42:00,31.0,28.0,30.23,West,263,15.0,24.0,87,0.00,,,0.00,,2013-01-03 18:42:00,
2013-01-03 12:53:00,31.0,28.0,30.22,WSW,251,13.0,25.0,87,0.00,,,0.00,,2013-01-03 18:53:00,
2013-01-03 13:03:00,31.0,27.0,30.22,West,264,15.0,29.0,86,0.00,,,0.00,,2013-01-03 19:03:00,
2013-01-03 13:12:00,31.0,27.0,30.22,West,264,15.0,29.0,86,0.00,,,0.00,,2013-01-03 19:12:00,
2013-01-03 14:03:00,31.0,27.0,30.22,West,271,16.0,24.0,86,0.00,,,0.00,,2013-01-03 20:03:00,
2013-01-03 14:12:00,31.0,27.0,30.22,West,271,16.0,24.0,86,0.00,,,0.00,,2013-01-03 20:12:00,
2013-01-03 14:22:00,31.0,27.0,30.23,West,259,16.0,28.0,86,0.00,,,0.00,,2013-01-03 20:22:00,
2013-01-03 14:33:00,31.0,26.0,30.23,West,265,16.0,32.0,80,0.00,,,0.00,,2013-01-03 20:33:00,
2013-01-03 14:42:00,31.0,26.0,30.23,West,265,16.0,32.0,80,0.00,,,0.00,,2013-01-03 20:42:00,
2013-01-03 14:53:00,31.0,25.0,30.24,WSW,253,17.0,35.0,78,0.00,,,0.00,,2013-01-03 20:53:00,
2013-01-03 15:02:00,31.0,25.0,30.24,WSW,257,18.0,32.0,78,0.00,,,0.00,,2013-01-03 21:02:00,
2013-01-03 15:12:00,31.0,25.0,30.24,WSW,257,18.0,32.0,78,0.00,,,0.00,,2013-01-03 21:12:00,
2013-01-03 15:22:00,30.0,24.0,30.24,West,264,13.0,26.0,79,0.00,,,0.00,,2013-01-03 21:22:00,
2013-01-03 15:36:00,30.0,24.0,30.25,WSW,254,16.0,25.0,78,0.00,,,0.00,,2013-01-03 21:36:00,
2013-01-03 15:48:00,30.0,24.0,30.25,WSW,254,16.0,25.0,78,0.00,,,0.00,,2013-01-03 21:48:00,
2013-01-03 16:03:00,30.0,24.0,30.25,WSW,257,14.0,24.0,79,0.00,,,0.00,,2013-01-03 22:03:00,
2013-01-03 16:12:00,30.0,24.0,30.25,WSW,257,14.0,24.0,79,0.00,,,0.00,,2013-01-03 22:12:00,
2013-01-03 16:22:00,30.0,24.0,30.25,WSW,257,14.0,24.0,79,0.00,,,0.00,,2013-01-03 22:22:00,
2013-01-03 16:33:00,29.0,24.0,30.27,West,259,6.0,12.0,80,0.00,,,0.00,,2013-01-03 22:33:00,
2013-01-03 16:43:00,29.0,24.0,30.27,West,259,6.0,12.0,80,0.00,,,0.00,,2013-01-03 22:43:00,
2013-01-03 16:52:00,28.0,23.0,30.27,West,266,8.0,14.0,81,0.00,,,0.00,,2013-01-03 22:52:00,
2013-01-03 17:02:00,27.0,23.0,30.27,West,274,7.0,10.0,83,0.00,,,0.00,,2013-01-03 23:02:00,
2013-01-03 17:12:00,27.0,23.0,30.27,West,274,7.0,10.0,83,0.00,,,0.00,,2013-01-03 23:12:00,
2013-01-03 17:22:00,26.0,22.0,30.28,West,269,6.0,13.0,83,0.00,,,0.00,,2013-01-03 23:22:00,
2013-01-03 17:33:00,25.0,21.0,30.29,West,259,9.0,14.0,84,0.00,,,0.00,,2013-01-03 23:33:00,
2013-01-03 17:42:00,25.0,21.0,30.29,West,259,9.0,14.0,84,0.00,,,0.00,,2013-01-03 23:42:00,
2013-01-03 17:52:00,25.0,21.0,30.29,West,265,8.0,14.0,84,0.00,,,0.00,,2013-01-03 23:52:00,
2013-01-03 18:03:00,25.0,21.0,30.29,West,260,7.0,12.0,85,0.00,,,0.00,,2013-01-04 00:03:00,
2013-01-03 18:12:00,25.0,21.0,30.29,West,260,7.0,12.0,85,0.00,,,0.00,,2013-01-04 00:12:00,
2013-01-03 18:22:00,24.0,20.0,30.30,WSW,257,10.0,20.0,84,0.00,,,0.00,,2013-01-04 00:22:00,
2013-01-03 18:32:00,24.0,20.0,30.30,WSW,257,10.0,21.0,83,0.00,,,0.00,,2013-01-04 00:32:00,
2013-01-03 18:42:00,24.0,20.0,30.30,WSW,257,10.0,21.0,83,0.00,,,0.00,,2013-01-04 00:42:00,
2013-01-03 18:52:00,24.0,20.0,30.30,WSW,257,10.0,21.0,83,0.00,,,0.00,,2013-01-04 00:52:00,
2013-01-03 19:02:00,22.0,18.0,30.31,West,262,8.0,13.0,85,0.00,,,0.00,,2013-01-04 01:02:00,
2013-01-03 19:12:00,22.0,18.0,30.31,West,262,8.0,13.0,85,0.00,,,0.00,,2013-01-04 01:12:00,
2013-01-03 19:22:00,22.0,18.0,30.31,West,266,7.0,13.0,85,0.00,,,0.00,,2013-01-04 01:22:00,
2013-01-03 19:32:00,22.0,18.0,30.32,West,265,7.0,13.0,86,0.00,,,0.00,,2013-01-04 01:32:00,
2013-01-03 19:42:00,22.0,18.0,30.32,West,265,7.0,13.0,86,0.00,,,0.00,,2013-01-04 01:42:00,
2013-01-03 19:52:00,22.0,18.0,30.32,West,265,7.0,13.0,86,0.00,,,0.00,,2013-01-04 01:52:00,
2013-01-03 20:02:00,21.0,18.0,30.32,West,262,10.0,15.0,87,0.00,,,0.00,,2013-01-04 02:02:00,
2013-01-03 20:12:00,21.0,18.0,30.32,West,262,10.0,15.0,87,0.00,,,0.00,,2013-01-04 02:12:00,
2013-01-03 20:22:00,21.0,18.0,30.32,West,263,9.0,14.0,87,0.00,,,0.00,,2013-01-04 02:22:00,
2013-01-03 20:32:00,20.0,17.0,30.32,West,274,7.0,12.0,88,0.00,,,0.00,,2013-01-04 02:32:00,
2013-01-03 20:42:00,20.0,17.0,30.32,West,274,7.0,12.0,88,0.00,,,0.00,,2013-01-04 02:42:00,
2013-01-03 20:52:00,20.0,17.0,30.32,West,260,9.0,13.0,88,0.00,,,0.00,,2013-01-04 02:52:00,
2013-01-03 21:02:00,20.0,17.0,30.32,WSW,251,7.0,14.0,88,0.00,,,0.00,,2013-01-04 03:02:00,
2013-01-03 21:12:00,20.0,17.0,30.32,WSW,251,7.0,14.0,88,0.00,,,0.00,,2013-01-04 03:12:00,
2013-01-03 21:22:00,19.0,16.0,30.32,WSW,247,4.0,12.0,89,0.00,,,0.00,,2013-01-04 03:22:00,
2013-01-03 21:32:00,19.0,17.0,30.32,WSW,253,10.0,14.0,90,0.00,,,0.00,,2013-01-04 03:32:00,
2013-01-03 21:42:00,19.0,17.0,30.32,WSW,253,10.0,14.0,90,0.00,,,0.00,,2013-01-04 03:42:00,
2013-01-03 21:52:00,19.0,17.0,30.32,WSW,255,7.0,12.0,90,0.00,,,0.00,,2013-01-04 03:52:00,
2013-01-03 22:02:00,19.0,17.0,30.32,West,259,10.0,15.0,91,0.00,,,0.00,,2013-01-04 04:02:00,
2013-01-03 22:12:00,19.0,17.0,30.32,West,259,10.0,15.0,91,0.00,,,0.00,,2013-01-04 04:12:00,
2013-01-03 22:22:00,19.0,17.0,30.32,WSW,257,7.0,14.0,91,0.00,,,0.00,,2013-01-04 04:22:00,
2013-01-03 22:32:00,19.0,17.0,30.32,WSW,257,7.0,14.0,91,0.00,,,0.00,,2013-01-04 04:32:00,
2013-01-03 22:42:00,19.0,17.0,30.32,WSW,257,7.0,14.0,91,0.00,,,0.00,,2013-01-04 04:42:00,
2013-01-03 22:52:00,17.0,15.0,30.32,WSW,258,8.0,14.0,92,0.00,,,0.00,,2013-01-04 04:52:00,
2013-01-03 23:03:00,17.0,15.0,30.32,SW,216,7.0,12.0,92,0.00,,,0.00,,2013-01-04 05:03:00,
2013-01-03 23:12:00,17.0,15.0,30.32,SW,216,7.0,12.0,92,0.00,,,0.00,,2013-01-04 05:12:00,
2013-01-03 23:22:00,16.0,14.0,30.31,SW,236,7.0,12.0,93,0.00,,,0.00,,2013-01-04 05:22:00,
2013-01-03 23:33:00,16.0,15.0,30.30,WSW,248,8.0,12.0,94,0.00,,,0.00,,2013-01-04 05:33:00,
2013-01-03 23:42:00,16.0,15.0,30.30,WSW,248,8.0,12.0,94,0.00,,,0.00,,2013-01-04 05:42:00,
2013-01-03 23:52:00,16.0,15.0,30.31,WSW,251,7.0,13.0,94,0.00,,,0.00,,2013-01-04 05:52:00,